This is the latest recevied weather packets stored in our database for station/object N2RDT. If no packets are shown the sender has not sent any weather packets the latest 10 day(s).
| Time | Temp. | Humidity | Pressure | Rain* | Wind** | Luminosity | Snow |
|---|---|---|---|---|---|---|---|
| 1777844180 | 18.89° C | 30% | 1016.6 hPa | 0 mm | - | 388 W/m² | - |
| 1777843876 | 18.89° C | 27% | 1016.7 hPa | 0 mm | - | 409 W/m² | - |
| 1777843574 | 18.89° C | 28% | 1016.6 hPa | 0 mm | - | 430 W/m² | - |
| 1777843271 | 18.89° C | 30% | 1016.5 hPa | 0 mm | - | 447 W/m² | - |
| 1777842969 | 18.89° C | 28% | 1016.7 hPa | 0 mm | - | 468 W/m² | - |
| 1777842663 | 18.89° C | 29% | 1016.6 hPa | 0 mm | - | 488 W/m² | - |
| 1777842360 | 19.44° C | 31% | 1016.6 hPa | 0 mm | - | 506 W/m² | - |
| 1777842056 | 18.89° C | 32% | 1016.7 hPa | 0 mm | - | 527 W/m² | - |
| 1777841753 | 18.89° C | 29% | 1016.7 hPa | 0 mm | - | 545 W/m² | - |
| 1777841449 | 18.33° C | 27% | 1016.7 hPa | 0 mm | - | 563 W/m² | - |
| 1777841146 | 18.89° C | 27% | 1016.9 hPa | 0 mm | - | 581 W/m² | - |
| 1777840843 | 18.89° C | 30% | 1017.1 hPa | 0 mm | - | 598 W/m² | - |
| 1777840541 | 18.89° C | 31% | 1016.9 hPa | 0 mm | - | 616 W/m² | - |
| 1777840238 | 19.44° C | 28% | 1016.6 hPa | 0 mm | - | 634 W/m² | - |
| 1777839936 | 19.44° C | 29% | 1016.9 hPa | 0 mm | - | 650 W/m² | - |
| 1777839633 | 18.89° C | 29% | 1016.7 hPa | 0 mm | - | 665 W/m² | - |
| 1777839331 | 18.33° C | 32% | 1017.1 hPa | 0 mm | - | 682 W/m² | - |
| 1777839028 | 18.89° C | 30% | 1017.1 hPa | 0 mm | - | 699 W/m² | - |
| 1777838724 | 18.89° C | 30% | 1017.2 hPa | 0 mm | - | 715 W/m² | - |
| 1777838421 | 17.78° C | 30% | 1017.2 hPa | 0 mm | - | 731 W/m² | - |
| 1777838119 | 17.78° C | 30% | 1017.3 hPa | 0 mm | - | 747 W/m² | - |
| 1777837815 | 18.33° C | 30% | 1017.5 hPa | 0 mm | - | 759 W/m² | - |
| 1777837513 | 18.33° C | 32% | 1017.4 hPa | 0 mm | - | 773 W/m² | - |
| 1777837212 | 18.89° C | 30% | 1017.2 hPa | 0 mm | - | 785 W/m² | - |
| 1777836909 | 17.78° C | 35% | 1017.4 hPa | 0 mm | - | 798 W/m² | - |
* Rain latest hour (hover to see other rain measurements)
** Current wind speed in m/s (hover to see current wind gust speed)